星链-1489 (STARLINK-1489 )

导读 | 豆包AI

STARLINK-1489是美国太空探索技术公司(SpaceX)于2020年6月13日发射的星链(Starlink)卫星,属于星链星座组网卫星,星链旨在为全球提供高速低延迟互联网服务,该卫星入轨后参与星座部署,服务全球多地的互联网络覆盖,推动星链低轨卫星互联网星座建设进程。

Basic Information
目录编号:
45776
目录名称:
STARLINK-1489
国际标识:
2020-038AY
轨道中心:
EARTH
卫星名称:
星链-1489
卫星全名:
星链-1489 (STARLINK-1489 )
卫星状态:
已陨落 最后检测时间 2025-06-20
发射日期:
2020-06-13 UTC
国别 :
美国 (US)
星等 :
--
Orbit Information
数据来源 国际轨道数据
星历时间: 2025-06-20T23:20:00+0800
轨道信息已过期312天
半长轴: 6525.358km
偏心率: 0.0001575
轨道倾角: 53.020°
近地点辐角 268.922°
升交点赤经 188.797°
平近点角 195.816°
近地点: 146.195km
远地点: 148.251km
周期: 87.431分钟
每日圈数: 16.470101
Detailed Information
固有亮度:
5
最大亮度:
2.5
卫星平台:
Starlink V1.0
覆盖范围:
全球
运营商:
太空探索技术公司
运营商所在国:
美国
制造商(研发单位):
太空探索技术公司
制造商所在国:
美国
使用方式:
暂无
Satellite Introduction
星链(Starlink)计划是由太空探索技术公司(SpaceX)提出的一个巨型低轨卫星互联网星座项目,计划在2019年至2024年间在太空搭建由约1.2万颗卫星组成的“星链”网络,其中1584颗将部署在地球上空550千米处的近地轨道,并从2020年开始工作。该卫星仍在工作。